This is the latest recevied weather packets stored in our database for station/object IK6IHU-3. If no packets are shown the sender has not sent any weather packets the latest 10 day(s).
| Time | Temp. | Humidity | Pressure | Rain* | Wind** | Luminosity | Snow |
|---|---|---|---|---|---|---|---|
| 1777709716 | 15° C | 54% | 1023.8 hPa | 0 mm | - | 0 W/m² | - |
| 1777709655 | 15° C | 53% | 1023.8 hPa | 0 mm | - | 0 W/m² | - |
| 1777709596 | 14.44° C | 53% | 1023.6 hPa | 0 mm | - | 0 W/m² | - |
| 1777709536 | 14.44° C | 52% | 1023.7 hPa | 0 mm | - | 0 W/m² | - |
| 1777709475 | 14.44° C | 53% | 1023.8 hPa | 0 mm | - | 0 W/m² | - |
| 1777709415 | 14.44° C | 53% | 1023.6 hPa | 0 mm | - | 0 W/m² | - |
| 1777709356 | 13.89° C | 53% | 1023.9 hPa | 0 mm | - | 0 W/m² | - |
| 1777709295 | 14.44° C | 53% | 1023.6 hPa | 0 mm | - | 0 W/m² | - |
| 1777709235 | 14.44° C | 52% | 1023.9 hPa | 0 mm | - | 0 W/m² | - |
| 1777709175 | 14.44° C | 51% | 1023.8 hPa | 0 mm | - | 0 W/m² | - |
| 1777709116 | 14.44° C | 51% | 1023.9 hPa | 0 mm | - | 0 W/m² | - |
| 1777709056 | 14.44° C | 53% | 1023.8 hPa | 0 mm | - | 0 W/m² | - |
| 1777708996 | 14.44° C | 52% | 1024 hPa | 0 mm | - | 0 W/m² | - |
| 1777708936 | 15° C | 50% | 1023.9 hPa | 0 mm | - | 0 W/m² | - |
| 1777708876 | 15° C | 47% | 1023.7 hPa | 0 mm | - | 0 W/m² | - |
| 1777708815 | 15° C | 50% | 1023.9 hPa | 0 mm | - | 0 W/m² | - |
| 1777708755 | 14.44° C | 48% | 1023.9 hPa | 0 mm | - | 0 W/m² | - |
| 1777708695 | 14.44° C | 48% | 1023.8 hPa | 0 mm | - | 0 W/m² | - |
| 1777708635 | 15° C | 49% | 1023.6 hPa | 0 mm | - | 0 W/m² | - |
| 1777708575 | 15° C | 50% | 1023.9 hPa | 0 mm | - | 0 W/m² | - |
| 1777708515 | 14.44° C | 49% | 1023.8 hPa | 0 mm | - | 0 W/m² | - |
| 1777708455 | 14.44° C | 51% | 1023.9 hPa | 0 mm | - | 0 W/m² | - |
| 1777708395 | 14.44° C | 51% | 1023.8 hPa | 0 mm | - | 0 W/m² | - |
| 1777708336 | 14.44° C | 51% | 1023.8 hPa | 0 mm | - | 0 W/m² | - |
| 1777708275 | 14.44° C | 48% | 1023.8 hPa | 0 mm | - | 0 W/m² | - |
* Rain latest hour (hover to see other rain measurements)
** Current wind speed in m/s (hover to see current wind gust speed)